This is the latest recevied weather packets stored in our database for station/object N6WDO. If no packets are shown the sender has not sent any weather packets the latest 10 day(s).
| Time | Temp. | Humidity | Pressure | Rain* | Wind** | Luminosity | Snow |
|---|---|---|---|---|---|---|---|
| 1777525166 | 12.22° C | 80% | 1017.3 hPa | 0 mm | - | 0 W/m² | - |
| 1777524863 | 12.22° C | 79% | 1017.1 hPa | 0 mm | - | 0 W/m² | - |
| 1777524561 | 12.78° C | 79% | 1017.1 hPa | 0 mm | - | 0 W/m² | - |
| 1777524258 | 12.78° C | 78% | 1017 hPa | 0 mm | - | 0 W/m² | - |
| 1777523955 | 12.78° C | 77% | 1017.1 hPa | 0 mm | - | 0 W/m² | - |
| 1777523651 | 13.33° C | 78% | 1017.1 hPa | 0 mm | - | 0 W/m² | - |
| 1777523346 | 13.33° C | 77% | 1017 hPa | 0 mm | - | 0 W/m² | - |
| 1777523043 | 12.78° C | 79% | 1017.1 hPa | 0 mm | - | 0 W/m² | - |
| 1777522740 | 13.33° C | 78% | 1017.2 hPa | 0 mm | - | 0 W/m² | - |
| 1777522436 | 13.33° C | 76% | 1016.9 hPa | 0 mm | - | 0 W/m² | - |
| 1777522134 | 13.33° C | 75% | 1016.8 hPa | 0 mm | - | 0 W/m² | - |
| 1777521830 | 13.33° C | 74% | 1017 hPa | 0 mm | - | 0 W/m² | - |
| 1777521526 | 13.33° C | 74% | 1016.8 hPa | 0 mm | - | 0 W/m² | - |
| 1777521224 | 13.33° C | 74% | 1016.6 hPa | 0 mm | - | 0 W/m² | - |
| 1777520921 | 13.89° C | 73% | 1016.7 hPa | 0 mm | - | 0 W/m² | - |
| 1777520618 | 14.44° C | 70% | 1016.6 hPa | 0 mm | - | 0 W/m² | - |
| 1777520314 | 15° C | 67% | 1016.7 hPa | 0 mm | - | 0 W/m² | - |
| 1777520013 | 15° C | 65% | 1016.7 hPa | 0 mm | - | 0 W/m² | - |
| 1777519709 | 15° C | 66% | 1016.5 hPa | 0 mm | - | 0 W/m² | - |
| 1777519406 | 15° C | 62% | 1016.3 hPa | 0 mm | - | 0 W/m² | - |
| 1777519103 | 15° C | 64% | 1016.2 hPa | 0 mm | - | 0 W/m² | - |
| 1777518798 | 16.11° C | 61% | 1015.9 hPa | 0 mm | - | 0 W/m² | - |
| 1777518494 | 16.67° C | 57% | 1016.2 hPa | 0 mm | - | 0 W/m² | - |
| 1777518190 | 16.67° C | 55% | 1016.3 hPa | 0 mm | - | 0 W/m² | - |
| 1777517887 | 17.22° C | 53% | 1016.1 hPa | 0 mm | - | 0 W/m² | - |
* Rain latest hour (hover to see other rain measurements)
** Current wind speed in m/s (hover to see current wind gust speed)